TimeCDT,TemperatureF,Dew PointF,Humidity,Sea Level PressureIn,VisibilityMPH,Wind Direction,Wind SpeedMPH,Gust SpeedMPH,PrecipitationIn,Events,Conditions,WindDirDegrees,DateUTC
12:54 AM,81.0,69.1,67,29.88,10.0,South,11.5,-,N/A,,Clear,180,2013-08-27 05:54:00
1:54 AM,78.1,69.1,74,29.89,10.0,South,6.9,-,N/A,,Clear,180,2013-08-27 06:54:00
2:54 AM,78.1,68.0,71,29.89,10.0,South,9.2,-,N/A,,Clear,180,2013-08-27 07:54:00
3:54 AM,75.9,68.0,76,29.88,10.0,South,10.4,-,N/A,,Clear,180,2013-08-27 08:54:00
4:54 AM,75.9,66.9,74,29.88,10.0,South,8.1,-,N/A,,Clear,180,2013-08-27 09:54:00
5:54 AM,75.9,66.0,71,29.88,10.0,South,9.2,-,N/A,,Clear,180,2013-08-27 10:54:00
6:54 AM,75.9,66.0,71,29.88,10.0,South,10.4,-,N/A,,Clear,190,2013-08-27 11:54:00
7:54 AM,77.0,66.0,69,29.88,10.0,SSW,9.2,-,N/A,,Clear,200,2013-08-27 12:54:00
8:54 AM,80.1,66.9,64,29.88,10.0,SSW,9.2,-,N/A,,Clear,210,2013-08-27 13:54:00
9:54 AM,82.9,68.0,60,29.88,10.0,SSW,10.4,-,N/A,,Clear,210,2013-08-27 14:54:00
10:54 AM,86.0,69.1,57,29.88,10.0,SSW,12.7,17.3,N/A,,Clear,210,2013-08-27 15:54:00
11:54 AM,88.0,71.1,57,29.88,10.0,SW,8.1,-,N/A,,Clear,220,2013-08-27 16:54:00
12:54 PM,90.0,72.0,55,29.87,10.0,SSW,9.2,-,N/A,,Clear,210,2013-08-27 17:54:00
1:54 PM,91.9,73.9,55,29.86,10.0,South,8.1,-,N/A,,Clear,190,2013-08-27 18:54:00
2:54 PM,93.0,75.0,56,29.85,10.0,SSW,10.4,-,N/A,,Clear,200,2013-08-27 19:54:00
3:54 PM,93.9,73.9,52,29.84,10.0,SSW,9.2,-,N/A,,Clear,210,2013-08-27 20:54:00
4:54 PM,93.9,71.1,47,29.84,10.0,SW,10.4,-,N/A,,Clear,220,2013-08-27 21:54:00
5:54 PM,93.0,75.0,56,29.84,10.0,SSW,5.8,-,N/A,,Clear,200,2013-08-27 22:54:00
6:54 PM,89.1,75.9,65,29.83,10.0,SSW,4.6,-,N/A,,Clear,210,2013-08-27 23:54:00
7:54 PM,82.9,77.0,82,29.84,10.0,South,5.8,-,N/A,,Clear,190,2013-08-28 00:54:00
8:54 PM,78.1,73.9,87,29.86,10.0,South,6.9,-,N/A,,Clear,190,2013-08-28 01:54:00
9:54 PM,75.9,72.0,87,29.86,10.0,South,4.6,-,N/A,,Clear,190,2013-08-28 02:54:00
10:54 PM,73.9,71.1,91,29.87,10.0,South,5.8,-,N/A,,Clear,170,2013-08-28 03:54:00
11:54 PM,73.0,70.0,90,29.88,10.0,SE,4.6,-,N/A,,Clear,140,2013-08-28 04:54:00